VIR58N KBOS-EGLL

Flight info

Callsign VIR58N
Flight time N/A
Altitude 39000
Route LBSTA8 LBSTA DCT ALLEX N431B ELSIR/M080F400 DCT 50N050W 52N040W 54N030W 55N020W DCT RESNO DCT NETKI/N0449F390 DCT BOFUM Q37 MALUD Q38 NUGRA
Aircraft A333/H-SDE3GHIJ2J3J5M1RVWXY/LB2D1

Departure

Time N/A
Airport Boston Logan International Airport (KBOS)

Arrival

Time 2026-05-04 17:51
Airport London Heathrow Airport (EGLL)
Time Latitude Longitude Altitude Speed Heading
2026-05-04 14:12 51.67551 -42.03153 40146 ft 512 kts 73°
2026-05-04 14:13 51.68500 -41.97547 40145 ft 512 kts 73°
2026-05-04 14:13 51.70224 -41.87321 40151 ft 512 kts 73°
2026-05-04 14:14 51.72079 -41.76244 40154 ft 512 kts 72°
2026-05-04 14:14 51.74543 -41.61423 40168 ft 511 kts 72°
2026-05-04 14:15 51.75749 -41.54120 40179 ft 511 kts 73°
2026-05-04 14:16 51.78480 -41.37470 40178 ft 511 kts 73°
2026-05-04 14:17 51.81184 -41.20818 40188 ft 510 kts 72°
2026-05-04 14:18 51.83857 -41.04190 40205 ft 510 kts 72°
2026-05-04 14:19 51.87088 -40.83873 40220 ft 508 kts 72°
2026-05-04 14:19 51.88828 -40.72819 40215 ft 505 kts 72°
2026-05-04 14:20 51.90551 -40.61805 40224 ft 504 kts 72°
2026-05-04 14:20 51.92262 -40.50798 40230 ft 504 kts 72°
2026-05-04 14:21 51.94812 -40.34256 40229 ft 504 kts 72°
2026-05-04 14:21 51.96495 -40.23239 40237 ft 502 kts 72°
2026-05-04 14:22 51.98160 -40.12265 40249 ft 500 kts 72°
2026-05-04 14:22 51.99872 -40.01337 40248 ft 498 kts 67°
2026-05-04 14:23 52.02735 -39.89075 40257 ft 495 kts 63°
2026-05-04 14:24 52.04436 -39.82267 40273 ft 495 kts 63°
2026-05-04 14:24 52.05300 -39.78843 40262 ft 494 kts 63°
2026-05-04 14:26 52.06085 -39.75735 40266 ft 493 kts 63°
2026-05-04 14:26 52.07944 -39.68357 40266 ft 493 kts 63°
2026-05-04 14:27 52.08803 -39.64931 40266 ft 493 kts 63°
2026-05-04 14:27 52.10254 -39.59123 40265 ft 493 kts 63°
2026-05-04 14:28 52.12836 -39.48714 40272 ft 493 kts 63°
2026-05-04 14:28 52.15353 -39.38506 40299 ft 494 kts 63°
2026-05-04 14:29 52.20211 -39.18672 40287 ft 498 kts 64°
2026-05-04 14:30 52.22710 -39.08395 40288 ft 498 kts 64°
2026-05-04 14:31 52.26522 -38.92629 40296 ft 498 kts 64°
2026-05-04 14:32 52.31540 -38.71697 40296 ft 496 kts 64°
2026-05-04 14:32 52.33918 -38.61711 40310 ft 496 kts 64°
2026-05-04 14:33 52.35846 -38.53579 40308 ft 496 kts 64°
2026-05-04 14:33 52.38329 -38.43061 40319 ft 495 kts 64°
2026-05-04 14:34 52.40792 -38.32572 40310 ft 492 kts 64°
2026-05-04 14:34 52.43239 -38.22103 40317 ft 492 kts 64°
2026-05-04 14:35 52.45679 -38.11616 40322 ft 493 kts 64°
2026-05-04 14:35 52.48111 -38.01112 40322 ft 493 kts 64°
2026-05-04 14:36 52.50534 -37.90593 40328 ft 493 kts 64°
2026-05-04 14:36 52.52948 -37.80061 40333 ft 493 kts 65°
2026-05-04 14:37 52.55353 -37.69515 40333 ft 493 kts 65°
2026-05-04 14:37 52.57749 -37.58955 40349 ft 493 kts 65°
2026-05-04 14:38 52.57924 -37.58182 40358 ft 493 kts 65°
2026-05-04 14:38 52.60289 -37.47702 40338 ft 492 kts 65°
2026-05-04 14:39 52.61718 -37.41342 40339 ft 492 kts 65°
2026-05-04 14:39 52.62777 -37.36621 40341 ft 492 kts 65°
2026-05-04 14:40 52.66150 -37.21505 40341 ft 492 kts 65°
2026-05-04 14:40 52.68278 -37.11911 40346 ft 492 kts 65°
2026-05-04 14:41 52.70619 -37.01310 40355 ft 492 kts 65°
2026-05-04 14:42 52.75252 -36.80157 40360 ft 492 kts 65°
2026-05-04 14:42 52.77564 -36.69524 40360 ft 492 kts 65°
2026-05-04 14:43 52.79865 -36.58882 40366 ft 492 kts 66°
2026-05-04 14:43 52.82158 -36.48224 40362 ft 493 kts 66°
2026-05-04 14:44 52.84445 -36.37538 40366 ft 493 kts 66°
2026-05-04 14:44 52.86720 -36.26853 40365 ft 493 kts 66°
2026-05-04 14:45 52.88988 -36.16141 40390 ft 493 kts 66°
2026-05-04 14:45 52.91242 -36.05440 40372 ft 492 kts 67°
2026-05-04 14:46 52.93486 -35.94730 40368 ft 492 kts 67°
2026-05-04 14:46 52.95717 -35.84026 40376 ft 492 kts 67°
2026-05-04 14:47 52.97940 -35.73300 40373 ft 492 kts 67°
2026-05-04 14:47 53.00154 -35.62563 40378 ft 492 kts 68°
2026-05-04 14:48 53.02359 -35.51813 40375 ft 492 kts 68°
2026-05-04 14:48 53.04542 -35.41107 40380 ft 492 kts 68°
2026-05-04 14:49 53.06649 -35.30722 40386 ft 492 kts 68°
2026-05-04 14:49 53.08825 -35.19942 40402 ft 492 kts 68°
2026-05-04 14:50 53.10992 -35.09142 40387 ft 492 kts 68°
2026-05-04 14:50 53.12784 -35.00166 40387 ft 492 kts 68°
2026-05-04 14:51 53.14601 -34.91022 40387 ft 492 kts 68°
2026-05-04 14:51 53.16756 -34.80126 40386 ft 492 kts 69°
2026-05-04 14:52 53.18872 -34.69361 40394 ft 492 kts 69°
2026-05-04 14:52 53.20992 -34.58520 40388 ft 492 kts 69°
2026-05-04 14:53 53.23101 -34.47669 40395 ft 492 kts 69°
2026-05-04 14:53 53.25202 -34.36805 40393 ft 492 kts 69°
2026-05-04 14:54 53.27292 -34.25931 40399 ft 492 kts 69°
2026-05-04 14:54 53.28933 -34.17351 40401 ft 491 kts 70°
2026-05-04 14:55 53.31002 -34.06474 40399 ft 491 kts 70°
2026-05-04 14:55 53.33061 -33.95589 40396 ft 491 kts 70°
2026-05-04 14:56 53.35110 -33.84695 40401 ft 491 kts 70°
2026-05-04 14:56 53.37148 -33.73797 40405 ft 491 kts 70°
2026-05-04 14:57 53.39176 -33.62887 40405 ft 490 kts 70°
2026-05-04 14:57 53.41190 -33.51990 40404 ft 490 kts 70°
2026-05-04 14:58 53.42194 -33.46529 40401 ft 490 kts 70°
2026-05-04 14:59 53.42627 -33.44172 40396 ft 490 kts 70°
2026-05-04 15:00 53.43092 -33.41638 40403 ft 490 kts 70°
2026-05-04 15:00 53.43788 -33.37836 40404 ft 490 kts 70°
2026-05-04 15:01 53.46533 -33.22765 40403 ft 490 kts 70°
2026-05-04 15:01 53.48511 -33.11826 40396 ft 490 kts 71°
2026-05-04 15:02 53.49828 -33.04502 40401 ft 490 kts 71°
2026-05-04 15:02 53.51755 -32.93742 40398 ft 490 kts 71°
2026-05-04 15:03 53.53709 -32.82763 40393 ft 490 kts 71°
2026-05-04 15:03 53.55386 -32.73283 40401 ft 490 kts 71°
2026-05-04 15:04 53.57320 -32.62293 40405 ft 490 kts 71°
2026-05-04 15:04 53.59240 -32.51312 40403 ft 490 kts 71°
2026-05-04 15:05 53.61153 -32.40304 40400 ft 490 kts 71°
2026-05-04 15:05 53.63057 -32.29284 40402 ft 490 kts 71°
2026-05-04 15:06 53.64004 -32.23771 40402 ft 490 kts 72°
2026-05-04 15:07 53.65942 -32.12446 40389 ft 489 kts 72°
2026-05-04 15:07 53.67815 -32.01430 40396 ft 489 kts 72°
2026-05-04 15:08 53.69647 -31.90587 40400 ft 489 kts 72°
2026-05-04 15:08 53.71501 -31.79547 40400 ft 489 kts 72°
2026-05-04 15:09 53.73016 -31.70472 40398 ft 488 kts 72°
2026-05-04 15:09 53.74485 -31.61621 40398 ft 488 kts 72°
2026-05-04 15:10 53.76002 -31.52439 40395 ft 488 kts 72°
2026-05-04 15:11 53.77789 -31.41560 40397 ft 488 kts 72°
2026-05-04 15:11 53.79596 -31.30485 40394 ft 488 kts 72°
2026-05-04 15:12 53.81390 -31.19422 40394 ft 488 kts 73°
2026-05-04 15:12 53.83174 -31.08340 40396 ft 488 kts 73°
2026-05-04 15:13 53.84796 -30.98209 40395 ft 488 kts 73°
2026-05-04 15:13 53.86558 -30.87126 40387 ft 488 kts 73°
2026-05-04 15:14 53.88301 -30.76095 40403 ft 488 kts 73°
2026-05-04 15:14 53.90055 -30.64918 40392 ft 487 kts 73°
2026-05-04 15:15 53.90687 -30.60870 40395 ft 487 kts 73°
2026-05-04 15:15 53.92416 -30.49754 40392 ft 487 kts 73°
2026-05-04 15:16 53.94988 -30.33069 40390 ft 487 kts 73°
2026-05-04 15:17 53.97539 -30.16352 40390 ft 487 kts 74°
2026-05-04 15:17 54.00053 -29.99695 40384 ft 487 kts 74°
2026-05-04 15:18 54.01690 -29.88440 40387 ft 487 kts 75°
2026-05-04 15:19 54.03902 -29.72873 40390 ft 487 kts 75°
2026-05-04 15:20 54.05295 -29.63005 40379 ft 487 kts 75°
2026-05-04 15:20 54.06870 -29.51800 40379 ft 487 kts 75°
2026-05-04 15:21 54.08238 -29.42004 40379 ft 487 kts 75°
2026-05-04 15:22 54.10362 -29.26676 40379 ft 487 kts 75°
2026-05-04 15:22 54.12672 -29.09821 40376 ft 487 kts 75°
2026-05-04 15:23 54.14197 -28.98584 40381 ft 487 kts 76°
2026-05-04 15:23 54.15713 -28.87330 40378 ft 487 kts 76°
2026-05-04 15:24 54.18713 -28.64805 40380 ft 487 kts 76°
2026-05-04 15:25 54.20197 -28.53527 40378 ft 487 kts 76°
2026-05-04 15:26 54.22014 -28.39603 40369 ft 487 kts 76°
2026-05-04 15:26 54.24201 -28.22661 40370 ft 487 kts 76°
2026-05-04 15:27 54.26355 -28.05768 40367 ft 487 kts 76°
2026-05-04 15:28 54.28259 -27.90673 40366 ft 487 kts 76°
2026-05-04 15:30 54.31319 -27.66051 40379 ft 487 kts 77°
2026-05-04 15:31 54.33021 -27.52164 40366 ft 487 kts 77°
2026-05-04 15:32 54.36219 -27.25678 40366 ft 487 kts 77°
2026-05-04 15:34 54.39117 -27.01220 40362 ft 487 kts 77°
2026-05-04 15:34 54.41107 -26.84148 40363 ft 487 kts 77°
2026-05-04 15:35 54.43078 -26.67022 40360 ft 487 kts 77°
2026-05-04 15:36 54.45024 -26.49888 40358 ft 487 kts 78°
2026-05-04 15:36 54.45759 -26.43357 40357 ft 487 kts 78°
2026-05-04 15:37 54.46682 -26.35100 40351 ft 487 kts 78°
2026-05-04 15:37 54.47701 -26.25934 40357 ft 487 kts 78°
2026-05-04 15:38 54.48749 -26.16425 40357 ft 487 kts 78°
2026-05-04 15:38 54.49505 -26.09524 40355 ft 487 kts 78°
2026-05-04 15:39 54.50750 -25.98075 40355 ft 487 kts 78°
2026-05-04 15:40 54.52542 -25.81396 40350 ft 487 kts 78°
2026-05-04 15:40 54.53647 -25.71003 40349 ft 487 kts 78°
2026-05-04 15:41 54.54696 -25.61048 40349 ft 487 kts 78°
2026-05-04 15:41 54.55894 -25.49577 40353 ft 487 kts 78°
2026-05-04 15:42 54.57082 -25.38095 40346 ft 486 kts 79°
2026-05-04 15:42 54.58258 -25.26610 40346 ft 486 kts 79°
2026-05-04 15:43 54.58946 -25.19843 40346 ft 486 kts 79°
2026-05-04 15:43 54.59737 -25.12011 40346 ft 486 kts 79°
2026-05-04 15:44 54.60790 -25.01499 40338 ft 486 kts 79°
2026-05-04 15:44 54.61306 -24.96320 40347 ft 486 kts 79°
2026-05-04 15:45 54.62347 -24.85786 40340 ft 487 kts 79°
2026-05-04 15:46 54.63474 -24.74270 40332 ft 487 kts 79°
2026-05-04 15:46 54.64590 -24.62752 40333 ft 487 kts 79°
2026-05-04 15:47 54.65694 -24.51232 40332 ft 487 kts 79°
2026-05-04 15:47 54.66777 -24.39814 40336 ft 487 kts 79°
2026-05-04 15:48 54.67860 -24.28274 40335 ft 487 kts 79°
2026-05-04 15:48 54.69465 -24.10948 40328 ft 487 kts 79°
2026-05-04 15:49 54.70521 -23.99394 40315 ft 487 kts 80°
2026-05-04 15:49 54.71565 -23.87837 40325 ft 487 kts 80°
2026-05-04 15:50 54.72599 -23.76273 40316 ft 486 kts 80°
2026-05-04 15:50 54.73620 -23.64719 40316 ft 486 kts 80°
2026-05-04 15:51 54.74630 -23.53153 40313 ft 486 kts 80°
2026-05-04 15:51 54.75629 -23.41592 40312 ft 486 kts 80°
2026-05-04 15:52 54.76618 -23.30018 40312 ft 486 kts 80°
2026-05-04 15:52 54.77588 -23.18524 40310 ft 485 kts 80°
2026-05-04 15:53 54.78553 -23.06958 40307 ft 485 kts 81°
2026-05-04 15:53 54.79506 -22.95390 40306 ft 485 kts 81°
2026-05-04 15:54 54.80449 -22.83808 40303 ft 485 kts 81°
2026-05-04 15:54 54.81381 -22.72228 40304 ft 485 kts 81°
2026-05-04 15:55 54.82153 -22.62523 40295 ft 485 kts 81°
2026-05-04 15:55 54.83065 -22.50926 40301 ft 485 kts 81°
2026-05-04 15:56 54.83960 -22.39400 40300 ft 485 kts 81°
2026-05-04 15:56 54.84850 -22.27793 40300 ft 485 kts 81°
2026-05-04 15:57 54.85728 -22.16187 40291 ft 485 kts 81°
2026-05-04 15:57 54.86594 -22.04594 40291 ft 484 kts 81°
2026-05-04 15:58 54.87449 -21.92991 40289 ft 484 kts 82°
2026-05-04 15:58 54.88293 -21.81383 40285 ft 484 kts 82°
2026-05-04 15:59 54.89126 -21.69773 40293 ft 484 kts 82°
2026-05-04 15:59 54.89948 -21.58162 40280 ft 484 kts 82°
2026-05-04 16:00 54.90758 -21.46546 40282 ft 484 kts 82°
2026-05-04 16:00 54.91559 -21.34909 40277 ft 484 kts 82°
2026-05-04 16:01 54.92347 -21.23278 40277 ft 484 kts 82°
2026-05-04 16:01 54.93125 -21.11647 40265 ft 484 kts 82°
2026-05-04 16:02 54.93891 -21.00004 40270 ft 485 kts 82°
2026-05-04 16:03 54.95021 -20.82515 40259 ft 485 kts 82°
2026-05-04 16:03 54.95761 -20.70847 40258 ft 485 kts 82°
2026-05-04 16:04 54.96489 -20.59184 40270 ft 485 kts 83°
2026-05-04 16:04 54.97555 -20.41767 40253 ft 484 kts 83°
2026-05-04 16:05 54.98254 -20.30116 40258 ft 484 kts 83°
2026-05-04 16:06 54.99281 -20.12627 40250 ft 484 kts 83°
2026-05-04 16:07 55.00328 -19.89255 40251 ft 484 kts 87°
2026-05-04 16:08 55.00672 -19.65824 40244 ft 484 kts 87°
2026-05-04 16:09 55.01140 -19.36541 40235 ft 484 kts 87°
2026-05-04 16:10 55.01479 -19.13100 40237 ft 484 kts 88°
2026-05-04 16:11 55.01769 -18.89737 40238 ft 484 kts 88°
2026-05-04 16:12 55.02121 -18.54542 40219 ft 484 kts 88°
2026-05-04 16:13 55.02300 -18.31068 40226 ft 484 kts 88°
2026-05-04 16:14 55.02433 -18.07625 40213 ft 483 kts 88°
2026-05-04 16:16 55.02536 -17.78326 40207 ft 484 kts 89°
2026-05-04 16:17 55.02569 -17.49075 40196 ft 482 kts 89°
2026-05-04 16:18 55.02545 -17.25783 40193 ft 482 kts 89°
2026-05-04 16:19 55.02452 -16.96555 40189 ft 482 kts 89°
2026-05-04 16:20 55.02289 -16.67335 40189 ft 482 kts 90°
2026-05-04 16:22 55.02056 -16.38153 40182 ft 481 kts 90°
2026-05-04 16:23 55.01685 -16.03173 40182 ft 481 kts 90°
2026-05-04 16:25 55.01215 -15.68302 40167 ft 481 kts 91°
2026-05-04 16:26 55.00539 -15.27524 40166 ft 481 kts 91°
2026-05-04 16:28 54.99993 -14.98412 40155 ft 481 kts 90°
2026-05-04 16:29 55.00106 -14.57866 40150 ft 472 kts 89°
2026-05-04 16:31 55.00091 -14.29275 40155 ft 473 kts 89°
2026-05-04 16:32 54.99499 -13.96737 39392 ft 482 kts 100°
2026-05-04 16:33 54.97881 -13.83532 39137 ft 478 kts 103°
2026-05-04 16:33 54.96439 -13.72928 39142 ft 477 kts 103°
2026-05-04 16:34 54.94130 -13.56082 39137 ft 477 kts 103°
2026-05-04 16:35 54.89503 -13.22401 39132 ft 478 kts 104°
2026-05-04 16:36 54.87156 -13.05586 39132 ft 478 kts 104°
2026-05-04 16:37 54.84785 -12.88789 39133 ft 478 kts 104°
2026-05-04 16:38 54.81603 -12.66529 39124 ft 476 kts 104°
2026-05-04 16:39 54.77563 -12.38725 39127 ft 476 kts 104°
2026-05-04 16:40 54.74287 -12.16527 39127 ft 476 kts 104°
2026-05-04 16:41 54.70134 -11.88826 39125 ft 476 kts 105°
2026-05-04 16:43 54.65927 -11.61245 39122 ft 473 kts 105°
2026-05-04 16:43 54.63385 -11.44800 39121 ft 473 kts 105°
2026-05-04 16:45 54.58233 -11.11960 39119 ft 473 kts 105°
2026-05-04 16:46 54.54168 -10.86498 39122 ft 473 kts 105°
2026-05-04 16:47 54.50632 -10.64652 39115 ft 472 kts 105°
2026-05-04 16:48 54.47073 -10.42951 39119 ft 471 kts 106°
2026-05-04 16:49 54.43473 -10.21275 39117 ft 471 kts 106°
2026-05-04 16:50 54.39841 -9.99676 39116 ft 471 kts 106°
2026-05-04 16:51 54.37104 -9.83577 39113 ft 471 kts 106°
2026-05-04 16:52 54.33412 -9.62087 39118 ft 468 kts 106°
2026-05-04 16:53 54.30632 -9.46072 39110 ft 468 kts 106°
2026-05-04 16:54 54.26889 -9.24740 39107 ft 468 kts 106°
2026-05-04 16:55 54.21208 -8.92839 39117 ft 467 kts 107°
2026-05-04 16:56 54.16435 -8.66463 39125 ft 464 kts 106°
2026-05-04 16:57 54.13552 -8.50716 39100 ft 463 kts 106°
2026-05-04 16:58 54.09682 -8.29777 39100 ft 463 kts 107°
2026-05-04 17:00 54.03809 -7.98443 39090 ft 463 kts 107°
2026-05-04 17:01 53.98861 -7.72439 39081 ft 461 kts 107°
2026-05-04 17:02 53.94884 -7.51790 39078 ft 459 kts 107°
2026-05-04 17:03 53.91883 -7.36352 39077 ft 459 kts 107°
2026-05-04 17:03 53.88858 -7.20914 39077 ft 460 kts 107°
2026-05-04 17:04 53.84808 -7.00438 39066 ft 460 kts 107°
2026-05-04 17:05 53.81048 -6.81622 39070 ft 460 kts 107°
2026-05-04 17:06 53.77952 -6.66266 39068 ft 460 kts 107°
2026-05-04 17:07 53.75178 -6.52606 39068 ft 459 kts 107°
2026-05-04 17:07 53.72754 -6.40750 39067 ft 459 kts 107°
2026-05-04 17:08 53.69609 -6.25466 39067 ft 460 kts 108°
2026-05-04 17:09 53.67500 -6.15284 39077 ft 459 kts 108°
2026-05-04 17:09 53.65426 -6.05320 39069 ft 459 kts 108°
2026-05-04 17:10 53.60102 -5.79967 39070 ft 459 kts 108°
2026-05-04 17:11 53.57959 -5.69855 39069 ft 458 kts 108°
2026-05-04 17:12 53.54757 -5.54750 39073 ft 456 kts 106°
2026-05-04 17:12 53.53630 -5.44319 39072 ft 454 kts 94°
2026-05-04 17:13 53.52116 -5.28606 39069 ft 456 kts 102°
2026-05-04 17:14 53.49002 -5.07956 39067 ft 456 kts 103°
2026-05-04 17:15 53.46633 -4.92504 39065 ft 456 kts 103°
2026-05-04 17:16 53.43443 -4.71934 39066 ft 456 kts 103°
2026-05-04 17:17 53.40218 -4.51395 39072 ft 455 kts 104°
2026-05-04 17:18 53.36963 -4.30913 39069 ft 455 kts 104°
2026-05-04 17:19 53.33675 -4.10475 39063 ft 454 kts 104°
2026-05-04 17:20 53.30356 -3.90096 39062 ft 456 kts 105°
2026-05-04 17:20 53.27822 -3.74696 39055 ft 456 kts 105°
2026-05-04 17:21 53.24438 -3.54340 39062 ft 456 kts 105°
2026-05-04 17:22 53.22724 -3.44123 39056 ft 458 kts 105°
2026-05-04 17:23 53.19264 -3.23675 39049 ft 458 kts 105°
2026-05-04 17:24 53.16641 -3.08334 39047 ft 459 kts 106°
2026-05-04 17:25 53.13106 -2.87871 39049 ft 461 kts 106°
2026-05-04 17:26 53.09528 -2.67394 39044 ft 461 kts 106°
2026-05-04 17:27 53.05003 -2.41825 39046 ft 462 kts 107°
2026-05-04 17:27 53.02605 -2.31924 38181 ft 467 kts 125°
2026-05-04 17:28 52.97812 -2.24831 37093 ft 462 kts 146°
2026-05-04 17:29 52.89685 -2.16409 35432 ft 457 kts 146°
2026-05-04 17:29 52.81598 -2.08016 33367 ft 459 kts 145°
2026-05-04 17:30 52.73498 -1.99609 31142 ft 459 kts 147°
2026-05-04 17:31 52.68127 -1.94052 29983 ft 451 kts 148°
2026-05-04 17:31 52.60295 -1.85976 28305 ft 434 kts 148°
2026-05-04 17:32 52.55228 -1.80769 27246 ft 425 kts 149°
2026-05-04 17:33 52.47845 -1.73208 25673 ft 413 kts 150°
2026-05-04 17:33 52.45413 -1.70725 25151 ft 410 kts 151°
2026-05-04 17:34 52.38217 -1.63395 23568 ft 402 kts 152°
2026-05-04 17:34 52.35845 -1.60985 22984 ft 399 kts 152°
2026-05-04 17:35 52.29661 -1.54718 21632 ft 387 kts 151°
2026-05-04 17:35 52.25123 -1.50131 20633 ft 380 kts 151°
2026-05-04 17:35 52.22853 -1.47838 20030 ft 379 kts 150°
2026-05-04 17:36 52.20743 -1.45336 19420 ft 381 kts 143°
2026-05-04 17:36 52.18720 -1.42572 18897 ft 378 kts 141°
2026-05-04 17:36 52.16735 -1.39789 18360 ft 375 kts 141°
2026-05-04 17:36 52.14742 -1.36993 17770 ft 372 kts 141°
2026-05-04 17:37 52.12787 -1.34259 17138 ft 370 kts 141°
2026-05-04 17:37 52.10867 -1.31580 16684 ft 366 kts 141°
2026-05-04 17:37 52.08907 -1.28850 16412 ft 367 kts 141°
2026-05-04 17:37 52.06967 -1.26155 16151 ft 367 kts 141°
2026-05-04 17:38 52.05025 -1.23459 15919 ft 367 kts 141°
2026-05-04 17:38 52.03114 -1.20810 15659 ft 366 kts 141°
2026-05-04 17:38 52.01178 -1.18131 15382 ft 365 kts 141°
2026-05-04 17:38 51.99222 -1.15426 15137 ft 365 kts 141°
2026-05-04 17:39 51.95495 -1.09929 14913 ft 367 kts 130°
2026-05-04 17:39 51.94007 -1.06577 14456 ft 363 kts 125°
2026-05-04 17:39 51.92641 -1.03207 14112 ft 350 kts 124°
2026-05-04 17:40 51.91343 -0.99991 13675 ft 333 kts 124°
2026-05-04 17:40 51.90092 -0.96916 13205 ft 321 kts 124°
2026-05-04 17:40 51.88882 -0.93963 12751 ft 310 kts 125°
2026-05-04 17:40 51.87702 -0.91101 12317 ft 301 kts 125°
2026-05-04 17:41 51.86538 -0.88351 11876 ft 292 kts 130°
2026-05-04 17:41 51.85130 -0.86078 11432 ft 285 kts 146°
2026-05-04 17:41 51.83360 -0.84617 10782 ft 286 kts 163°
2026-05-04 17:41 51.81452 -0.83724 10319 ft 285 kts 168°
2026-05-04 17:42 51.79548 -0.82971 10122 ft 279 kts 168°
2026-05-04 17:42 51.77676 -0.82254 9809 ft 276 kts 169°
2026-05-04 17:42 51.75803 -0.81547 9317 ft 278 kts 169°
2026-05-04 17:42 51.73912 -0.80835 8820 ft 278 kts 169°
2026-05-04 17:43 51.72053 -0.80135 8317 ft 270 kts 169°
2026-05-04 17:43 51.70249 -0.79455 7848 ft 266 kts 169°
2026-05-04 17:43 51.68455 -0.78782 7523 ft 265 kts 169°
2026-05-04 17:43 51.66654 -0.78108 7588 ft 266 kts 169°
2026-05-04 17:44 51.64865 -0.77435 7493 ft 260 kts 169°
2026-05-04 17:44 51.63099 -0.76773 7060 ft 263 kts 168°
2026-05-04 17:44 51.61302 -0.76102 6507 ft 268 kts 168°
2026-05-04 17:44 51.59486 -0.75681 6115 ft 258 kts 182°
2026-05-04 17:45 51.57793 -0.76128 6070 ft 238 kts 195°
2026-05-04 17:45 51.56292 -0.76829 6065 ft 220 kts 197°
2026-05-04 17:45 51.54779 -0.77589 5363 ft 235 kts 197°
2026-05-04 17:45 51.53184 -0.78386 4620 ft 243 kts 197°
2026-05-04 17:46 51.51567 -0.79175 3892 ft 242 kts 194°
2026-05-04 17:46 51.49940 -0.79299 3458 ft 228 kts 164°
2026-05-04 17:46 51.48678 -0.78041 3192 ft 208 kts 126°
2026-05-04 17:46 51.48045 -0.76064 3014 ft 193 kts 106°
2026-05-04 17:47 51.47738 -0.74051 2993 ft 179 kts 94°
2026-05-04 17:47 51.47680 -0.72154 2974 ft 164 kts 87°
2026-05-04 17:47 51.47679 -0.70360 2833 ft 161 kts 88°
2026-05-04 17:47 51.47681 -0.68555 2609 ft 160 kts 86°
2026-05-04 17:48 51.47684 -0.66785 2384 ft 158 kts 87°
2026-05-04 17:48 51.47689 -0.65023 2164 ft 157 kts 86°
2026-05-04 17:48 51.47696 -0.63271 1940 ft 157 kts 86°
2026-05-04 17:48 51.47701 -0.61540 1750 ft 155 kts 86°
2026-05-04 17:49 51.47708 -0.59812 1511 ft 155 kts 86°
2026-05-04 17:49 51.47714 -0.58071 1325 ft 156 kts 86°
2026-05-04 17:49 51.47720 -0.56355 1112 ft 152 kts 86°
2026-05-04 17:49 51.47726 -0.54651 890 ft 154 kts 86°
2026-05-04 17:50 51.47733 -0.52939 672 ft 154 kts 87°
2026-05-04 17:50 51.47736 -0.51231 429 ft 152 kts 87°
2026-05-04 17:50 51.47742 -0.49541 245 ft 151 kts 87°
2026-05-04 17:50 51.47749 -0.47871 100 ft 144 kts 87°
2026-05-04 17:51 51.47763 -0.46495 93 ft 91 kts 90°
2026-05-04 17:51 51.47763 -0.45688 90 ft 47 kts 90°
2026-05-04 17:51 51.47700 -0.45467 92 ft 17 kts 167°
2026-05-04 17:51 51.47614 -0.45465 90 ft 12 kts 180°
2026-05-04 17:52 51.47561 -0.45465 91 ft 7 kts 181°
2026-05-04 17:52 51.47524 -0.45485 94 ft 4 kts 216°
2026-05-04 17:52 51.47513 -0.45515 93 ft 3 kts 252°
2026-05-04 17:52 51.47509 -0.45564 93 ft 5 kts 266°
2026-05-04 17:53 51.47508 -0.45636 93 ft 8 kts 269°
2026-05-04 17:53 51.47510 -0.45726 93 ft 8 kts 276°
2026-05-04 17:53 51.47516 -0.45830 91 ft 10 kts 272°
2026-05-04 17:53 51.47518 -0.45959 90 ft 12 kts 270°
2026-05-04 17:54 51.47516 -0.46107 90 ft 15 kts 268°
2026-05-04 17:54 51.47513 -0.46277 93 ft 17 kts 271°
2026-05-04 17:54 51.47514 -0.46468 93 ft 17 kts 270°
2026-05-04 17:54 51.47514 -0.46642 94 ft 14 kts 269°
2026-05-04 17:55 51.47489 -0.46751 95 ft 5 kts 208°
2026-05-04 17:55 51.47438 -0.46744 93 ft 11 kts 169°
2026-05-04 17:55 51.47350 -0.46726 90 ft 14 kts 178°
2026-05-04 17:55 51.47248 -0.46724 90 ft 16 kts 179°
2026-05-04 17:56 51.47149 -0.46722 90 ft 12 kts 179°
2026-05-04 17:56 51.47058 -0.46720 93 ft 13 kts 173°
2026-05-04 17:56 51.47000 -0.46669 93 ft 9 kts 148°
2026-05-04 17:56 51.46986 -0.46645 95 ft 3 kts 112°
2026-05-04 17:57 51.46996 -0.46597 95 ft 5 kts 57°
2026-05-04 17:57 51.47014 -0.46548 95 ft 2 kts 58°
2026-05-04 17:57 51.47021 -0.46530 93 ft 1 kts 57°
2026-05-04 17:57 51.47022 -0.46529 93 ft 0 kts 57°